Hourly Data Report for October 26, 2015

All times are specified in Local Standard Time (LST). Add 1 hour to adjust for Daylight Saving Time where and when it is observed.

HALL BEACH A
NUNAVUT

68°46'33.000" N
81°14'33.000" W
9.10 m
2402354
71293
YUX

Download Data

Hourly Data (October 2015)
Hourly Data Report for October 26, 2015
Temp Definition
°C
Dew Point Temp Definition
°C
Rel Hum Definition
%
Wind Dir Definition
10's deg

Wind Spd Definition
km/h
Visibility Definition
km
Stn Press Definition
kPa
Hmdx Definition


Wind Chill Definition


Weather Definition


TIME
00:00 Legend Double Dagger -14.9 -16.5 88 31 9 16.1 98.54   -21 LegendNANA
01:00 Legend Double Dagger -11.0 -12.1 92 32 15 4.8 98.59   -18 Snow
02:00 Legend Double Dagger -9.9 -10.5 96 LegendMM 5 16.1 98.64   -13 Snow
03:00 Legend Double Dagger -7.3 -10.5 78 10 13 16.1 98.72   -13 Snow
04:00 Legend Double Dagger -7.4 -11.6 72 9 18 16.1 98.78   -14 Snow
05:00 Legend Double Dagger -7.7 -14.8 57 6 15 16.1 98.84   -14 LegendNANA
06:00 Legend Double Dagger -7.8 -10.7 80 6 15 6.4 98.88   -14 Snow
07:00 Legend Double Dagger -7.3 -11.4 73 6 30 16.1 98.93   -16 Snow
08:00 Legend Double Dagger -7.2 -13.0 64 5 22 16.1 98.98   -15 LegendNANA
09:00 Legend Double Dagger -7.6 -10.7 79 2 17 8.1 98.99   -14 Snow
10:00 Legend Double Dagger -8.2 -9.4 91 34 34 3.2 99.00   -18 Snow
11:00 Legend Double Dagger -7.8 -9.0 91 33 30 6.4 99.02   -17 Snow
12:00 Legend Double Dagger -7.9 -9.4 89 32 26 12.9 99.04   -16 Snow
13:00 Legend Double Dagger -12.8 -15.0 84 31 26 16.1 99.05   -23 LegendNANA
14:00 Legend Double Dagger -12.8 -14.7 86 30 26 16.1 99.05   -23 LegendNANA
15:00 Legend Double Dagger -12.5 -14.2 87 31 22 12.9 99.08   -21 Snow
16:00 Legend Double Dagger -13.1 -15.1 85 31 22 16.1 99.10   -22 Snow
17:00 Legend Double Dagger -14.0 -15.7 87 31 18 8.1 99.10   -22 Snow
18:00 Legend Double Dagger -13.5 -14.8 90 30 17 16.1 99.11   -22 Snow
19:00 Legend Double Dagger -12.8 -14.3 89 30 18 16.1 99.12   -21 LegendNANA
20:00 Legend Double Dagger -12.1 -13.3 91 30 18 16.1 99.16   -20 LegendNANA
21:00 Legend Double Dagger -12.7 -14.0 90 30 17 16.1 99.16   -21 Snow
22:00 Legend Double Dagger -11.5 -12.6 92 29 13 14.5 99.16   -18 Snow
23:00 Legend Double Dagger -10.6 -11.7 92 28 9 4.8 99.17   -16 Snow

Notes on Data Quality.

Legend

  • E = Estimated
  • M = Missing
  • NA = Not Available
  • ‡ = Partner data that is not subject to review by the National Climate Archives
Date modified: